| time (UTC) | temp F | wind direction | speed knots | gust knots | rain 1hr in | rain 24hr in | rain mn in | humidity % | barometer mb |
| 20260906103551 | 87 | 345 | 1.7 | 5.2 | 0.00 | 0.00 | 0.00 | 58 | 1022.2 |
| 20260906103101 | 87 | 27 | 1.7 | 7.8 | 0.00 | 0.00 | 0.00 | 59 | 1022.2 |
| 20260906102553 | 87 | 34 | 2.6 | 7.8 | 0.00 | 0.00 | 0.00 | 59 | 1022.2 |
| 20260906102050 | 87 | 354 | 1.7 | 7.8 | 0.00 | 0.00 | 0.00 | 60 | 1022.3 |
| 20260906101556 | 86 | 51 | 1.7 | 6.1 | 0.00 | 0.00 | 0.00 | 61 | 1022.3 |
| 20260906101050 | 87 | 102 | 1.7 | 6.1 | 0.00 | 0.00 | 0.00 | 59 | 1022.4 |
| 20260906100551 | 87 | 44 | 2.6 | 7.8 | 0.00 | 0.00 | 0.00 | 60 | 1022.3 |
| 20260906100059 | 86 | 312 | 0.9 | 7.8 | 0.00 | 0.00 | 0.00 | 62 | 1022.3 |
| 20260906095550 | 86 | 65 | 2.6 | 7.0 | 0.00 | 0.00 | 0.00 | 62 | 1022.4 |
| 20260906095050 | 85 | 330 | 1.7 | 5.2 | 0.00 | 0.00 | 0.00 | 68 | 1022.4 |
| 20260906094601 | 85 | 343 | 1.7 | 5.2 | 0.00 | 0.00 | 0.00 | 68 | 1022.4 |
| 20260906094051 | 85 | 245 | 2.6 | 5.2 | 0.00 | 0.00 | 0.00 | 68 | 1022.4 |
| 20260906093551 | 85 | 350 | 1.7 | 4.3 | 0.00 | 0.00 | 0.00 | 68 | 1022.4 |
| 20260906093058 | 85 | 261 | 0.9 | 4.3 | 0.00 | 0.00 | 0.00 | 67 | 1022.5 |
| 20260906092549 | 85 | 302 | 1.7 | 4.3 | 0.00 | 0.00 | 0.00 | 67 | 1022.5 |
| 20260906092052 | 85 | 280 | 0.9 | 4.3 | 0.00 | 0.00 | 0.00 | 67 | 1022.4 |
| 20260906091601 | 84 | 249 | 1.7 | 4.3 | 0.00 | 0.00 | 0.00 | 67 | 1022.5 |
| 20260906091051 | 83 | 314 | 0.9 | 4.3 | 0.00 | 0.00 | 0.00 | 67 | 1022.5 |
| 20260906090550 | 83 | 332 | 0.9 | 4.3 | 0.00 | 0.00 | 0.00 | 67 | 1022.4 |
| 20260906085551 | 84 | 73 | 1.7 | 4.3 | 0.00 | 0.00 | 0.00 | 65 | 1022.4 |
| 20260906085051 | 84 | 311 | 0.9 | 3.5 | 0.00 | 0.00 | 0.00 | 65 | 1022.4 |
| 20260906084602 | 84 | 0 | 0.0 | 3.5 | 0.00 | 0.00 | 0.00 | 66 | 1022.3 |
| 20260906084053 | 83 | 317 | 1.7 | 3.5 | 0.00 | 0.00 | 0.00 | 65 | 1022.4 |
| 20260906083551 | 83 | 347 | 0.0 | 2.6 | 0.00 | 0.00 | 0.00 | 66 | 1022.4 |
| 20260906083059 | 82 | 0 | 0.0 | 2.6 | 0.00 | 0.00 | 0.00 | 69 | 1022.4 |
| 20260906082550 | 82 | 337 | 0.0 | 2.6 | 0.00 | 0.00 | 0.00 | 69 | 1022.4 |
| 20260906082111 | 82 | 36 | 0.0 | 2.6 | 0.00 | 0.00 | 0.00 | 70 | 1022.4 |
| 20260906081603 | 81 | 0 | 0.0 | 2.6 | 0.00 | 0.00 | 0.00 | 71 | 1022.4 |
| 20260906081050 | 81 | 338 | 0.0 | 1.7 | 0.00 | 0.00 | 0.00 | 69 | 1022.4 |
| 20260906080547 | 80 | 359 | 0.0 | 1.7 | 0.00 | 0.00 | 0.00 | 67 | 1022.4 |
| 20260906080056 | 81 | 56 | 0.0 | 1.7 | 0.00 | 0.00 | 0.00 | 66 | 1022.3 |
| 20260906075546 | 81 | 342 | 0.0 | 1.7 | 0.00 | 0.00 | 0.00 | 64 | 1022.3 |
| 20260906075048 | 80 | 0 | 0.0 | 0.9 | 0.00 | 0.00 | 0.00 | 66 | 1022.3 |
| 20260906074600 | 79 | 141 | 0.0 | 1.7 | 0.00 | 0.00 | 0.00 | 67 | 1022.3 |
| 20260906074047 | 78 | 0 | 0.0 | 2.6 | 0.00 | 0.00 | 0.00 | 68 | 1022.1 |
| 20260906073549 | 78 | 0 | 0.9 | 2.6 | 0.00 | 0.00 | 0.00 | 68 | 1022.2 |
| 20260906073058 | 78 | 99 | 0.9 | 2.6 | 0.00 | 0.00 | 0.00 | 67 | 1022.1 |
| 20260906072547 | 78 | 120 | 0.0 | 2.6 | 0.00 | 0.00 | 0.00 | 68 | 1022.0 |
| 20260906072048 | 76 | 0 | 0.0 | 2.6 | 0.00 | 0.00 | 0.00 | 70 | 1022.0 |
| 20260906071559 | 75 | 0 | 0.9 | 4.3 | 0.00 | 0.00 | 0.00 | 72 | 1021.9 |
| 20260906071047 | 75 | 89 | 1.7 | 5.2 | 0.00 | 0.00 | 0.00 | 72 | 1022.0 |
| 20260906070546 | 75 | 116 | 2.6 | 5.2 | 0.00 | 0.00 | 0.00 | 71 | 1021.9 |
| 20260906065549 | 76 | 96 | 0.0 | 1.7 | 0.00 | 0.00 | 0.00 | 71 | 1022.2 |
| 20260906065047 | 75 | 112 | 0.0 | 3.5 | 0.00 | 0.00 | 0.00 | 73 | 1022.1 |
| 20260906064559 | 75 | 239 | 0.9 | 3.5 | 0.00 | 0.00 | 0.00 | 73 | 1022.1 |
| 20260906064046 | 75 | 93 | 0.0 | 3.5 | 0.00 | 0.00 | 0.00 | 73 | 1022.1 |
| 20260906063546 | 74 | 124 | 0.0 | 3.5 | 0.00 | 0.00 | 0.00 | 75 | 1022.0 |
| 20260906063100 | 73 | 86 | 0.0 | 3.5 | 0.00 | 0.00 | 0.00 | 76 | 1022.0 |
| 20260906062548 | 73 | 0 | 0.0 | 0.9 | 0.00 | 0.00 | 0.00 | 77 | 1022.0 |
| 20260906062048 | 72 | 0 | 0.0 | 2.6 | 0.00 | 0.00 | 0.00 | 78 | 1022.0 |
| 20260906061613 | 71 | 0 | 0.0 | 3.5 | 0.00 | 0.00 | 0.00 | 79 | 1021.9 |
| 20260906061046 | 70 | 108 | 0.9 | 4.3 | 0.00 | 0.00 | 0.00 | 80 | 1021.9 |
| 20260906060547 | 70 | 150 | 0.9 | 5.2 | 0.00 | 0.00 | 0.00 | 80 | 1021.8 |
| 20260906060059 | 70 | 117 | 1.7 | 5.2 | 0.00 | 0.00 | 0.00 | 81 | 1021.8 |
| 20260906055546 | 70 | 89 | 0.0 | 1.7 | 0.00 | 0.00 | 0.00 | 81 | 1021.7 |
| 20260906055049 | 69 | 0 | 0.0 | 1.7 | 0.00 | 0.00 | 0.00 | 82 | 1021.7 |
| 20260906054601 | 69 | 0 | 0.0 | 3.5 | 0.00 | 0.00 | 0.00 | 82 | 1021.6 |
| 20260906054047 | 69 | 0 | 0.0 | 3.5 | 0.00 | 0.00 | 0.00 | 81 | 1021.6 |
| 20260906053547 | 69 | 82 | 0.9 | 3.5 | 0.00 | 0.00 | 0.00 | 80 | 1021.6 |
| 20260906053057 | 69 | 0 | 0.0 | 4.3 | 0.00 | 0.00 | 0.00 | 80 | 1021.6 |
| 20260906052547 | 69 | 165 | 0.9 | 4.3 | 0.00 | 0.00 | 0.00 | 80 | 1021.5 |
| 20260906052047 | 69 | 132 | 0.0 | 2.6 | 0.00 | 0.00 | 0.00 | 80 | 1021.5 |
| 20260906051606 | 68 | 0 | 0.0 | 2.6 | 0.00 | 0.00 | 0.00 | 81 | 1021.4 |
| 20260906051046 | 68 | 117 | 0.0 | 1.7 | 0.00 | 0.00 | 0.00 | 82 | 1021.4 |
| 20260906050549 | 68 | 114 | 0.0 | 0.9 | 0.00 | 0.00 | 0.00 | 83 | 1021.4 |
| 20260906050053 | 68 | 0 | 0.0 | 0.9 | 0.00 | 0.00 | 0.00 | 84 | 1021.4 |
| 20260906045546 | 68 | 0 | 0.0 | 0.9 | 0.00 | 0.00 | 0.00 | 84 | 1021.5 |
| 20260906045047 | 68 | 0 | 0.0 | 0.9 | 0.00 | 0.00 | 0.00 | 84 | 1021.4 |
| 20260906044556 | 68 | 0 | 0.0 | 0.9 | 0.00 | 0.00 | 0.00 | 84 | 1021.2 |
| 20260906044051 | 68 | 0 | 0.0 | 0.9 | 0.00 | 0.00 | 0.00 | 83 | 1021.3 |
| 20260906043547 | 68 | 0 | 0.0 | 1.7 | 0.00 | 0.00 | 0.00 | 83 | 1021.2 |
| 20260906043059 | 68 | 0 | 0.0 | 1.7 | 0.00 | 0.00 | 0.00 | 83 | 1021.2 |
| 20260906042547 | 68 | 105 | 0.0 | 2.6 | 0.00 | 0.00 | 0.00 | 83 | 1021.2 |
| 20260906042047 | 68 | 84 | 0.0 | 2.6 | 0.00 | 0.00 | 0.00 | 83 | 1021.1 |
| 20260906041557 | 68 | 0 | 0.0 | 1.7 | 0.00 | 0.00 | 0.00 | 83 | 1021.0 |
| 20260906041047 | 68 | 0 | 0.9 | 2.6 | 0.00 | 0.00 | 0.00 | 83 | 1020.9 |
| 20260906040547 | 68 | 0 | 0.0 | 2.6 | 0.00 | 0.00 | 0.00 | 83 | 1020.8 |
| 20260906040103 | 68 | 100 | 0.9 | 2.6 | 0.00 | 0.00 | 0.00 | 83 | 1020.7 |
| 20260906035549 | 68 | 0 | 0.0 | 0.0 | 0.00 | 0.00 | 0.00 | 82 | 1020.7 |
| 20260906035049 | 68 | 0 | 0.0 | 0.0 | 0.00 | 0.00 | 0.00 | 82 | 1020.6 |
| 20260906034604 | 68 | 0 | 0.0 | 0.9 | 0.00 | 0.00 | 0.00 | 82 | 1020.6 |
| 20260906034049 | 69 | 0 | 0.0 | 0.9 | 0.00 | 0.00 | 0.00 | 82 | 1020.6 |
| 20260906033547 | 68 | 0 | 0.0 | 0.9 | 0.00 | 0.00 | 0.00 | 82 | 1020.6 |
| 20260906033057 | 68 | 0 | 0.0 | 0.9 | 0.00 | 0.00 | 0.00 | 82 | 1020.6 |
| 20260906032547 | 68 | 0 | 0.0 | 0.9 | 0.00 | 0.00 | 0.00 | 82 | 1020.5 |
| 20260906032050 | 68 | 0 | 0.0 | 0.9 | 0.00 | 0.00 | 0.00 | 83 | 1020.5 |
| 20260906031603 | 68 | 0 | 0.0 | 0.9 | 0.00 | 0.00 | 0.00 | 82 | 1020.5 |
| 20260906031046 | 68 | 0 | 0.0 | 0.9 | 0.00 | 0.00 | 0.00 | 82 | 1020.4 |
| 20260906030547 | 68 | 295 | 0.0 | 0.9 | 0.00 | 0.00 | 0.00 | 82 | 1020.3 |
| 20260906030101 | 68 | 0 | 0.0 | 0.9 | 0.00 | 0.00 | 0.00 | 82 | 1020.3 |
| 20260906025549 | 69 | 0 | 0.0 | 0.9 | 0.00 | 0.00 | 0.00 | 82 | 1020.2 |
| 20260906025049 | 69 | 0 | 0.0 | 0.9 | 0.00 | 0.00 | 0.00 | 81 | 1020.3 |
| 20260906024601 | 69 | 0 | 0.0 | 0.0 | 0.00 | 0.00 | 0.00 | 82 | 1020.3 |
| 20260906024051 | 69 | 0 | 0.0 | 0.0 | 0.00 | 0.00 | 0.00 | 81 | 1020.3 |
| 20260906023549 | 69 | 39 | 0.0 | 0.0 | 0.00 | 0.00 | 0.00 | 81 | 1020.2 |
| 20260906023110 | 69 | 0 | 0.0 | 0.0 | 0.00 | 0.00 | 0.00 | 80 | 1020.2 |
| 20260906022548 | 69 | 0 | 0.0 | 0.0 | 0.00 | 0.00 | 0.00 | 80 | 1020.0 |
| 20260906022048 | 70 | 0 | 0.0 | 0.9 | 0.00 | 0.00 | 0.00 | 80 | 1020.1 |
| 20260906021604 | 70 | 0 | 0.0 | 0.9 | 0.00 | 0.00 | 0.00 | 79 | 1020.0 |
| 20260906021047 | 70 | 0 | 0.0 | 0.0 | 0.00 | 0.00 | 0.00 | 79 | 1020.0 |
| 20260906020546 | 71 | 0 | 0.0 | 1.7 | 0.00 | 0.00 | 0.00 | 78 | 1020.0 |
| 20260906015549 | 71 | 0 | 0.0 | 1.7 | 0.00 | 0.00 | 0.00 | 78 | 1019.8 |
| 20260906015049 | 71 | 0 | 0.0 | 1.7 | 0.00 | 0.00 | 0.00 | 78 | 1019.8 |
| 20260906014606 | 71 | 0 | 0.0 | 1.7 | 0.00 | 0.00 | 0.00 | 78 | 1019.8 |
| 20260906014048 | 71 | 154 | 0.0 | 0.9 | 0.00 | 0.00 | 0.00 | 77 | 1019.8 |
| 20260906013549 | 71 | 0 | 0.0 | 1.7 | 0.00 | 0.00 | 0.00 | 77 | 1019.8 |
| 20260906013056 | 72 | 0 | 0.0 | 1.7 | 0.00 | 0.00 | 0.00 | 77 | 1019.7 |
| 20260906012547 | 71 | 0 | 0.0 | 1.7 | 0.00 | 0.00 | 0.00 | 77 | 1019.7 |
| 20260906012046 | 71 | 0 | 0.0 | 0.9 | 0.00 | 0.00 | 0.00 | 78 | 1019.8 |
| 20260906011607 | 72 | 0 | 0.0 | 0.9 | 0.00 | 0.00 | 0.00 | 77 | 1019.7 |
| 20260906011050 | 72 | 96 | 0.0 | 0.9 | 0.00 | 0.00 | 0.00 | 77 | 1019.7 |
| 20260906010549 | 72 | 101 | 0.0 | 0.9 | 0.00 | 0.00 | 0.00 | 77 | 1019.7 |
| 20260906010108 | 72 | 132 | 0.0 | 0.9 | 0.00 | 0.00 | 0.00 | 76 | 1019.6 |
| 20260906005549 | 72 | 0 | 0.0 | 0.0 | 0.00 | 0.00 | 0.00 | 75 | 1019.6 |
| 20260906005052 | 72 | 0 | 0.0 | 0.0 | 0.00 | 0.00 | 0.00 | 74 | 1019.6 |
| 20260906004602 | 72 | 326 | 0.0 | 0.0 | 0.00 | 0.00 | 0.00 | 74 | 1019.7 |
| 20260906004046 | 72 | 0 | 0.0 | 0.0 | 0.00 | 0.00 | 0.00 | 74 | 1019.6 |
| 20260906003546 | 72 | 0 | 0.0 | 0.0 | 0.00 | 0.00 | 0.00 | 74 | 1019.6 |
| 20260906003101 | 72 | 0 | 0.0 | 0.0 | 0.00 | 0.00 | 0.00 | 74 | 1019.6 |
| 20260906002546 | 73 | 0 | 0.0 | 0.0 | 0.00 | 0.00 | 0.00 | 73 | 1019.6 |
| 20260906002049 | 73 | 0 | 0.0 | 0.0 | 0.00 | 0.00 | 0.00 | 73 | 1019.5 |
| 20260906001559 | 73 | 0 | 0.0 | 0.9 | 0.00 | 0.00 | 0.00 | 73 | 1019.5 |
| 20260906001050 | 73 | 0 | 0.0 | 1.7 | 0.00 | 0.00 | 0.00 | 72 | 1019.6 |
| 20260906000549 | 73 | 0 | 0.9 | 1.7 | 0.00 | 0.00 | 0.00 | 72 | 1019.6 |
| 20260906000101 | 73 | 291 | 0.0 | 0.9 | 0.00 | 0.00 | 0.00 | 71 | 1019.6 |
| 20260905235549 | 74 | 261 | 0.0 | 0.9 | 0.00 | 0.00 | 0.00 | 70 | 1019.4 |
| 20260905235052 | 74 | 0 | 0.0 | 0.9 | 0.00 | 0.00 | 0.00 | 70 | 1019.4 |
| 20260905234600 | 75 | 0 | 0.0 | 0.9 | 0.00 | 0.00 | 0.00 | 70 | 1019.4 |
| 20260905234049 | 75 | 0 | 0.0 | 0.9 | 0.00 | 0.00 | 0.00 | 70 | 1019.3 |
| 20260905233551 | 75 | 0 | 0.0 | 0.9 | 0.00 | 0.00 | 0.00 | 69 | 1019.3 |
| 20260905233057 | 75 | 0 | 0.0 | 0.9 | 0.00 | 0.00 | 0.00 | 69 | 1019.2 |
| 20260905232549 | 76 | 0 | 0.0 | 0.9 | 0.00 | 0.00 | 0.00 | 68 | 1019.2 |
| 20260905232049 | 76 | 0 | 0.0 | 0.9 | 0.00 | 0.00 | 0.00 | 67 | 1019.2 |
| 20260905231559 | 77 | 0 | 0.0 | 0.9 | 0.00 | 0.00 | 0.00 | 67 | 1019.2 |
| 20260905231052 | 77 | 0 | 0.0 | 0.9 | 0.00 | 0.00 | 0.00 | 66 | 1019.1 |
| 20260905230549 | 77 | 236 | 0.0 | 0.9 | 0.00 | 0.00 | 0.00 | 66 | 1019.2 |
| 20260905230104 | 78 | 0 | 0.0 | 4.3 | 0.00 | 0.00 | 0.00 | 66 | 1019.1 |
| 20260905225549 | 78 | 157 | 0.9 | 4.3 | 0.00 | 0.00 | 0.00 | 65 | 1019.0 |
| 20260905225046 | 78 | 179 | 1.7 | 5.2 | 0.00 | 0.00 | 0.00 | 65 | 1018.9 |
| 20260905224604 | 78 | 176 | 0.9 | 5.2 | 0.00 | 0.00 | 0.00 | 65 | 1018.9 |
| 20260905224048 | 78 | 122 | 0.9 | 5.2 | 0.00 | 0.00 | 0.00 | 65 | 1018.9 |
| 20260905223546 | 78 | 229 | 1.7 | 5.2 | 0.00 | 0.00 | 0.00 | 65 | 1019.0 |
| 20260905223101 | 78 | 231 | 0.9 | 5.2 | 0.00 | 0.00 | 0.00 | 65 | 1018.9 |
| 20260905222550 | 78 | 201 | 0.9 | 6.1 | 0.00 | 0.00 | 0.00 | 64 | 1018.8 |
| 20260905222049 | 78 | 239 | 0.9 | 6.1 | 0.00 | 0.00 | 0.00 | 64 | 1018.8 |
| 20260905221602 | 78 | 0 | 0.9 | 6.1 | 0.00 | 0.00 | 0.00 | 64 | 1018.8 |
| 20260905221050 | 78 | 0 | 0.9 | 2.6 | 0.00 | 0.00 | 0.00 | 64 | 1018.7 |
| 20260905220548 | 78 | 0 | 0.0 | 0.9 | 0.00 | 0.00 | 0.00 | 64 | 1018.5 |
| 20260905220057 | 78 | 0 | 0.0 | 1.7 | 0.00 | 0.00 | 0.00 | 64 | 1018.6 |
| 20260905215549 | 78 | 0 | 0.0 | 2.6 | 0.00 | 0.00 | 0.00 | 64 | 1018.5 |
| 20260905215047 | 78 | 148 | 0.0 | 4.3 | 0.00 | 0.00 | 0.00 | 63 | 1018.5 |
| 20260905214613 | 79 | 0 | 0.9 | 4.3 | 0.00 | 0.00 | 0.00 | 63 | 1018.5 |
| 20260905214049 | 79 | 0 | 0.0 | 4.3 | 0.00 | 0.00 | 0.00 | 62 | 1018.5 |
| 20260905213549 | 79 | 177 | 0.0 | 6.1 | 0.00 | 0.00 | 0.00 | 62 | 1018.5 |
| 20260905213116 | 79 | 119 | 0.0 | 6.1 | 0.00 | 0.00 | 0.00 | 61 | 1018.4 |
| 20260905212553 | 79 | 129 | 1.7 | 6.1 | 0.00 | 0.00 | 0.00 | 61 | 1018.4 |
| 20260905212048 | 79 | 248 | 1.7 | 5.2 | 0.00 | 0.00 | 0.00 | 61 | 1018.4 |
| 20260905211611 | 79 | 192 | 0.0 | 5.2 | 0.00 | 0.00 | 0.00 | 61 | 1018.4 |
| 20260905211049 | 79 | 221 | 0.9 | 5.2 | 0.00 | 0.00 | 0.00 | 61 | 1018.4 |
| 20260905210549 | 79 | 200 | 0.0 | 2.6 | 0.00 | 0.00 | 0.00 | 61 | 1018.3 |
| 20260905210112 | 79 | 58 | 0.0 | 1.7 | 0.00 | 0.00 | 0.00 | 61 | 1018.2 |
| 20260905205546 | 79 | 0 | 0.0 | 1.7 | 0.00 | 0.00 | 0.00 | 61 | 1018.2 |
| 20260905205050 | 80 | 0 | 0.0 | 3.5 | 0.00 | 0.00 | 0.00 | 60 | 1018.2 |
| 20260905204606 | 80 | 0 | 0.0 | 3.5 | 0.00 | 0.00 | 0.00 | 60 | 1018.2 |
| 20260905204051 | 80 | 113 | 0.9 | 3.5 | 0.00 | 0.00 | 0.00 | 60 | 1018.1 |
| 20260905203552 | 80 | 146 | 0.0 | 2.6 | 0.00 | 0.00 | 0.00 | 60 | 1018.1 |
| 20260905203107 | 80 | 106 | 0.0 | 2.6 | 0.00 | 0.00 | 0.00 | 60 | 1018.1 |
| 20260905202550 | 80 | 115 | 0.0 | 0.9 | 0.00 | 0.00 | 0.00 | 60 | 1018.1 |
| 20260905202049 | 80 | 0 | 0.0 | 0.9 | 0.00 | 0.00 | 0.00 | 60 | 1018.1 |
| 20260905201603 | 80 | 0 | 0.0 | 0.9 | 0.00 | 0.00 | 0.00 | 59 | 1018.1 |
| 20260905201048 | 80 | 109 | 0.0 | 1.7 | 0.00 | 0.00 | 0.00 | 59 | 1018.1 |
| 20260905200552 | 80 | 114 | 0.0 | 1.7 | 0.00 | 0.00 | 0.00 | 59 | 1018.1 |
| 20260905200104 | 80 | 0 | 0.0 | 0.9 | 0.00 | 0.00 | 0.00 | 59 | 1018.1 |
| 20260905195551 | 80 | 0 | 0.0 | 0.9 | 0.00 | 0.00 | 0.00 | 59 | 1018.1 |
| 20260905195049 | 80 | 0 | 0.0 | 0.9 | 0.00 | 0.00 | 0.00 | 59 | 1018.0 |
| 20260905194558 | 81 | 0 | 0.0 | 0.9 | 0.00 | 0.00 | 0.00 | 58 | 1018.0 |
| 20260905194050 | 81 | 219 | 0.0 | 0.9 | 0.00 | 0.00 | 0.00 | 58 | 1017.9 |
| 20260905193549 | 81 | 0 | 0.0 | 0.9 | 0.00 | 0.00 | 0.00 | 57 | 1017.9 |
| 20260905193057 | 82 | 0 | 0.0 | 0.9 | 0.00 | 0.00 | 0.00 | 57 | 1017.9 |
| 20260905192549 | 82 | 0 | 0.0 | 0.9 | 0.00 | 0.00 | 0.00 | 56 | 1017.7 |
| 20260905192048 | 82 | 0 | 0.0 | 0.9 | 0.00 | 0.00 | 0.00 | 55 | 1017.7 |
| 20260905191555 | 83 | 0 | 0.0 | 1.7 | 0.00 | 0.00 | 0.00 | 55 | 1017.6 |
| 20260905191049 | 83 | 0 | 0.0 | 1.7 | 0.00 | 0.00 | 0.00 | 54 | 1017.7 |
| 20260905190551 | 83 | 83 | 0.0 | 2.6 | 0.00 | 0.00 | 0.00 | 54 | 1017.6 |
| 20260905190103 | 83 | 137 | 0.0 | 2.6 | 0.00 | 0.00 | 0.00 | 54 | 1017.5 |
| 20260905185547 | 84 | 0 | 0.0 | 1.7 | 0.00 | 0.00 | 0.00 | 53 | 1017.6 |
| 20260905185047 | 84 | 0 | 0.0 | 1.7 | 0.00 | 0.00 | 0.00 | 53 | 1017.3 |
| 20260905184610 | 84 | 0 | 0.0 | 1.7 | 0.00 | 0.00 | 0.00 | 53 | 1017.2 |
| 20260905184049 | 84 | 152 | 0.0 | 1.7 | 0.00 | 0.00 | 0.00 | 52 | 1017.2 |
| 20260905183548 | 84 | 0 | 0.0 | 1.7 | 0.00 | 0.00 | 0.00 | 52 | 1017.2 |
| 20260905183115 | 85 | 0 | 0.0 | 1.7 | 0.00 | 0.00 | 0.00 | 52 | 1017.1 |
| 20260905182549 | 85 | 0 | 0.0 | 0.9 | 0.00 | 0.00 | 0.00 | 51 | 1017.0 |
| 20260905182049 | 85 | 0 | 0.0 | 0.9 | 0.00 | 0.00 | 0.00 | 51 | 1016.9 |
| 20260905181556 | 85 | 0 | 0.0 | 1.7 | 0.00 | 0.00 | 0.00 | 51 | 1016.8 |
| 20260905181048 | 86 | 0 | 0.0 | 1.7 | 0.00 | 0.00 | 0.00 | 51 | 1016.7 |
| 20260905180553 | 86 | 146 | 0.0 | 0.9 | 0.00 | 0.00 | 0.00 | 50 | 1016.6 |
| 20260905180108 | 86 | 0 | 0.0 | 1.7 | 0.00 | 0.00 | 0.00 | 50 | 1016.6 |
| 20260905175552 | 87 | 0 | 0.0 | 1.7 | 0.00 | 0.00 | 0.00 | 50 | 1016.6 |
| 20260905175048 | 87 | 0 | 0.0 | 2.6 | 0.00 | 0.00 | 0.00 | 49 | 1016.6 |
| 20260905174559 | 87 | 103 | 0.0 | 2.6 | 0.00 | 0.00 | 0.00 | 49 | 1016.6 |
| 20260905174049 | 88 | 0 | 0.0 | 1.7 | 0.00 | 0.00 | 0.00 | 49 | 1016.4 |
| 20260905173549 | 88 | 297 | 0.0 | 3.5 | 0.00 | 0.00 | 0.00 | 49 | 1016.4 |
| 20260905173106 | 88 | 0 | 0.9 | 5.2 | 0.00 | 0.00 | 0.00 | 48 | 1016.5 |
| 20260905172547 | 89 | 250 | 2.6 | 6.1 | 0.00 | 0.00 | 0.00 | 48 | 1016.4 |
| 20260905172047 | 89 | 211 | 2.6 | 6.1 | 0.00 | 0.00 | 0.00 | 48 | 1016.3 |
| 20260905171602 | 90 | 219 | 0.0 | 6.1 | 0.00 | 0.00 | 0.00 | 48 | 1016.3 |
| 20260905171049 | 90 | 213 | 0.9 | 6.1 | 0.00 | 0.00 | 0.00 | 48 | 1016.2 |
| 20260905170549 | 90 | 212 | 1.7 | 8.7 | 0.00 | 0.00 | 0.00 | 47 | 1016.2 |
| 20260905165549 | 91 | 229 | 2.6 | 8.7 | 0.00 | 0.00 | 0.00 | 47 | 1016.1 |
| 20260905165049 | 91 | 231 | 2.6 | 7.0 | 0.00 | 0.00 | 0.00 | 46 | 1016.0 |
| 20260905164559 | 91 | 231 | 1.7 | 7.0 | 0.00 | 0.00 | 0.00 | 46 | 1016.0 |
| 20260905164049 | 92 | 162 | 2.6 | 6.1 | 0.00 | 0.00 | 0.00 | 45 | 1016.0 |
| 20260905163553 | 93 | 249 | 1.7 | 7.0 | 0.00 | 0.00 | 0.00 | 45 | 1016.0 |
| 20260905163057 | 93 | 216 | 2.6 | 7.8 | 0.00 | 0.00 | 0.00 | 45 | 1015.9 |
| 20260905162551 | 93 | 244 | 2.6 | 7.8 | 0.00 | 0.00 | 0.00 | 45 | 1015.9 |
| 20260905162047 | 93 | 198 | 2.6 | 7.8 | 0.00 | 0.00 | 0.00 | 44 | 1015.9 |
| 20260905161604 | 94 | 41 | 3.5 | 7.0 | 0.00 | 0.00 | 0.00 | 44 | 1015.9 |
| 20260905161050 | 94 | 0 | 1.7 | 7.0 | 0.00 | 0.00 | 0.00 | 44 | 1015.9 |
| 20260905160547 | 94 | 117 | 3.5 | 7.0 | 0.00 | 0.00 | 0.00 | 43 | 1015.8 |
| 20260905160101 | 95 | 144 | 2.6 | 5.2 | 0.00 | 0.00 | 0.00 | 42 | 1015.9 |
| 20260905155547 | 95 | 208 | 1.7 | 6.1 | 0.00 | 0.00 | 0.00 | 41 | 1015.8 |
| 20260905155047 | 96 | 220 | 1.7 | 7.8 | 0.00 | 0.00 | 0.00 | 40 | 1015.7 |
| 20260905154559 | 96 | 124 | 2.6 | 7.8 | 0.00 | 0.00 | 0.00 | 39 | 1015.7 |
| 20260905154046 | 96 | 232 | 1.7 | 5.2 | 0.00 | 0.00 | 0.00 | 39 | 1015.6 |
| 20260905153548 | 96 | 219 | 1.7 | 4.3 | 0.00 | 0.00 | 0.00 | 38 | 1015.7 |
| 20260905153116 | 96 | 0 | 0.9 | 2.6 | 0.00 | 0.00 | 0.00 | 33 | 1015.6 |
| 20260905152550 | 97 | 266 | 0.9 | 2.6 | 0.00 | 0.00 | 0.00 | 33 | 1015.6 |
| 20260905152049 | 97 | 7 | 0.0 | 2.6 | 0.00 | 0.00 | 0.00 | 32 | 1015.6 |
| 20260905151611 | 97 | 352 | 0.0 | 3.5 | 0.00 | 0.00 | 0.00 | 33 | 1015.6 |
| 20260905151048 | 96 | 60 | 0.9 | 3.5 | 0.00 | 0.00 | 0.00 | 33 | 1015.6 |
| 20260905150548 | 96 | 0 | 0.9 | 4.3 | 0.00 | 0.00 | 0.00 | 33 | 1015.6 |
| 20260905150058 | 96 | 359 | 0.0 | 4.3 | 0.00 | 0.00 | 0.00 | 34 | 1015.6 |
| 20260905145548 | 96 | 349 | 0.9 | 4.3 | 0.00 | 0.00 | 0.00 | 33 | 1015.6 |
| 20260905145048 | 96 | 16 | 0.9 | 6.1 | 0.00 | 0.00 | 0.00 | 33 | 1015.7 |
| 20260905144603 | 95 | 44 | 1.7 | 6.1 | 0.00 | 0.00 | 0.00 | 33 | 1015.8 |
| 20260905144048 | 96 | 39 | 1.7 | 6.1 | 0.00 | 0.00 | 0.00 | 33 | 1015.8 |
| 20260905143548 | 96 | 8 | 1.7 | 4.3 | 0.00 | 0.00 | 0.00 | 33 | 1015.7 |
| 20260905143056 | 96 | 360 | 1.7 | 4.3 | 0.00 | 0.00 | 0.00 | 32 | 1015.8 |
| 20260905142549 | 95 | 0 | 0.0 | 3.5 | 0.00 | 0.00 | 0.00 | 33 | 1015.8 |
| 20260905142047 | 95 | 342 | 1.7 | 3.5 | 0.00 | 0.00 | 0.00 | 33 | 1015.9 |
| 20260905141619 | 96 | 359 | 0.9 | 3.5 | 0.00 | 0.00 | 0.00 | 32 | 1015.9 |
| 20260905141052 | 96 | 195 | 0.9 | 3.5 | 0.00 | 0.00 | 0.00 | 32 | 1016.0 |
| 20260905140549 | 95 | 144 | 0.9 | 4.3 | 0.00 | 0.00 | 0.00 | 32 | 1015.9 |
| 20260905140108 | 95 | 78 | 1.7 | 5.2 | 0.00 | 0.00 | 0.00 | 32 | 1015.9 |
| 20260905135550 | 96 | 33 | 1.7 | 5.2 | 0.00 | 0.00 | 0.00 | 32 | 1016.1 |
| 20260905135048 | 95 | 141 | 1.7 | 5.2 | 0.00 | 0.00 | 0.00 | 32 | 1016.2 |
| 20260905134557 | 95 | 163 | 0.9 | 5.2 | 0.00 | 0.00 | 0.00 | 33 | 1016.2 |
| 20260905134050 | 96 | 127 | 2.6 | 5.2 | 0.00 | 0.00 | 0.00 | 32 | 1016.3 |
| 20260905133549 | 96 | 78 | 0.0 | 4.3 | 0.00 | 0.00 | 0.00 | 32 | 1016.4 |
| 20260905133056 | 95 | 356 | 1.7 | 4.3 | 0.00 | 0.00 | 0.00 | 32 | 1016.5 |
| 20260905132549 | 95 | 74 | 0.9 | 6.1 | 0.00 | 0.00 | 0.00 | 33 | 1016.6 |
| 20260905132052 | 95 | 32 | 1.7 | 6.1 | 0.00 | 0.00 | 0.00 | 32 | 1016.5 |
| 20260905131615 | 95 | 42 | 3.5 | 6.1 | 0.00 | 0.00 | 0.00 | 33 | 1016.7 |
| 20260905131049 | 95 | 86 | 1.7 | 6.1 | 0.00 | 0.00 | 0.00 | 32 | 1016.7 |
| 20260905130552 | 95 | 51 | 1.7 | 6.1 | 0.00 | 0.00 | 0.00 | 33 | 1016.6 |
| 20260905130054 | 95 | 0 | 0.0 | 6.1 | 0.00 | 0.00 | 0.00 | 33 | 1016.7 |
| 20260905125549 | 94 | 310 | 1.7 | 6.1 | 0.00 | 0.00 | 0.00 | 33 | 1016.8 |
| 20260905125047 | 94 | 294 | 1.7 | 6.1 | 0.00 | 0.00 | 0.00 | 33 | 1016.8 |
| 20260905124555 | 94 | 67 | 1.7 | 5.2 | 0.00 | 0.00 | 0.00 | 33 | 1016.9 |
| 20260905124049 | 94 | 327 | 1.7 | 5.2 | 0.00 | 0.00 | 0.00 | 32 | 1016.8 |
| 20260905123549 | 94 | 346 | 1.7 | 6.1 | 0.00 | 0.00 | 0.00 | 34 | 1017.0 |
| 20260905123100 | 94 | 27 | 0.9 | 6.1 | 0.00 | 0.00 | 0.00 | 33 | 1017.0 |
| 20260905122549 | 93 | 41 | 2.6 | 7.0 | 0.00 | 0.00 | 0.00 | 33 | 1017.1 |
| 20260905122051 | 93 | 43 | 1.7 | 7.0 | 0.00 | 0.00 | 0.00 | 33 | 1017.1 |
| 20260905121603 | 94 | 329 | 1.7 | 7.0 | 0.00 | 0.00 | 0.00 | 32 | 1017.1 |
| 20260905121050 | 93 | 321 | 1.7 | 6.1 | 0.00 | 0.00 | 0.00 | 33 | 1017.1 |
| 20260905120550 | 93 | 323 | 2.6 | 7.0 | 0.00 | 0.00 | 0.00 | 32 | 1017.1 |
| 20260905120103 | 93 | 356 | 2.6 | 7.8 | 0.00 | 0.00 | 0.00 | 34 | 1017.1 |
| 20260905115550 | 93 | 20 | 3.5 | 7.8 | 0.00 | 0.00 | 0.00 | 33 | 1017.3 |
| 20260905115049 | 93 | 352 | 3.5 | 7.0 | 0.00 | 0.00 | 0.00 | 32 | 1017.3 |
| 20260905114557 | 93 | 328 | 0.9 | 7.0 | 0.00 | 0.00 | 0.00 | 32 | 1017.2 |
| 20260905114049 | 93 | 339 | 2.6 | 7.0 | 0.00 | 0.00 | 0.00 | 33 | 1017.2 |
| 20260905113549 | 93 | 314 | 2.6 | 5.2 | 0.00 | 0.00 | 0.00 | 34 | 1017.1 |
| 20260905113100 | 93 | 3 | 1.7 | 5.2 | 0.00 | 0.00 | 0.00 | 33 | 1017.1 |
| 20260905112549 | 92 | 328 | 2.6 | 5.2 | 0.00 | 0.00 | 0.00 | 34 | 1017.1 |
| 20260905112049 | 92 | 345 | 1.7 | 6.1 | 0.00 | 0.00 | 0.00 | 34 | 1017.2 |
| 20260905111600 | 92 | 319 | 1.7 | 6.1 | 0.00 | 0.00 | 0.00 | 34 | 1017.3 |
| 20260905111050 | 92 | 315 | 0.9 | 5.2 | 0.00 | 0.00 | 0.00 | 34 | 1017.4 |
| 20260905110548 | 91 | 251 | 2.6 | 5.2 | 0.00 | 0.00 | 0.00 | 34 | 1017.5 |
| 20260905110106 | 91 | 349 | 0.9 | 5.2 | 0.00 | 0.00 | 0.00 | 35 | 1017.4 |
| 20260905105550 | 91 | 221 | 0.9 | 3.5 | 0.00 | 0.00 | 0.00 | 34 | 1017.4 |
| 20260905105049 | 91 | 73 | 0.9 | 3.5 | 0.00 | 0.00 | 0.00 | 35 | 1017.5 |
| 20260905104600 | 91 | 333 | 0.9 | 4.3 | 0.00 | 0.00 | 0.00 | 35 | 1017.7 |
| 20260905104050 | 91 | 338 | 0.9 | 4.3 | 0.00 | 0.00 | 0.00 | 36 | 1017.7 |